Flag for U.S.A. Weather past 2 weeks in Shreveport, Louisiana, U.S.A.

Now
56 °F

Overcast.


Feels Like: 53 °F
Forecast: 52 / 59 °F
Wind: 12 mph from Northeast

Location: Shreveport Regional Airport

Current Time: Apr 28, 2015 at 9:57:28 AM

Latest Report: Apr 28, 2015 at 8:56 AM


Visibility: 10 mi

Pressure: 29.93 "Hg

Humidity: 77%

Dew point: 49 °F

Location of ShreveportLocation

Historic Weather in Shreveport — Graph

°F

Shreveport temperature yesterday

Maximum temperature yesterday: 73 °F (at 12:56 AM)
Minimum temperature yesterday: 57 °F (at 7:56 AM)
Average temperature yesterday: 66 °F

Past Weeks' High & Low Weather Summary

 TemperatureHumidityPressure
High89 °F (Apr 26, 3:56 PM)100% (Apr 15, 2:56 AM)30.06 "Hg (Apr 15, 2:56 AM)
Low50 °F (Apr 21, 4:56 AM)29% (Apr 20, 4:56 PM)29.62 "Hg (Apr 25, 4:56 PM)
Average68 °F77%29.87 "Hg
* Reported Apr 13 7:56 AM — Apr 28 7:56 AM, Shreveport, Weather by CustomWeather, © 2015

Note: Actual official high and low records may vary slightly from our data, if they occured in-between our weather recording intervals... More about our weather records

Advertising

Shreveport weather history for previous 24 hours

 ConditionsComfort  
Time TempWeatherWind HumidityBarometerVisibility
7:56 AM
Tue, Apr 28
54 °FPartly sunny.10 mph83%29.90 "Hg10 mi
6:56 AM54 °FPassing clouds.13 mph83%29.88 "Hg10 mi
5:56 AM53 °FPassing clouds.13 mph86%29.87 "Hg10 mi
4:56 AM54 °FLight rain. Mostly cloudy.12 mph86%29.85 "Hg10 mi
3:56 AM55 °FLight rain. Mostly cloudy.16 mph93%29.88 "Hg8 mi
2:56 AM56 °FLight rain. Mostly cloudy.13 mph90%29.91 "Hg10 mi
1:56 AM62 °FMostly cloudy.10 mph56%29.87 "Hg10 mi
12:56 AM63 °FOvercast.12 mph56%29.87 "Hg10 mi
11:56 PM
Mon, Apr 27
63 °FPartly cloudy.14 mph56%29.82 "Hg10 mi
10:56 PM65 °FMostly cloudy.17 mph54%29.83 "Hg10 mi
9:56 PM66 °FOvercast.16 mph56%29.84 "Hg10 mi
8:56 PM67 °FMostly cloudy.13 mph59%29.81 "Hg10 mi
7:56 PM68 °FPartly sunny.12 mph57%29.78 "Hg10 mi
6:56 PM71 °FScattered clouds.12 mph53%29.76 "Hg10 mi
5:56 PM73 °FPassing clouds.13 mph50%29.75 "Hg10 mi
4:56 PM73 °FPassing clouds.15 mph51%29.75 "Hg10 mi
3:56 PM73 °FPartly sunny.16 mph51%29.76 "Hg10 mi
2:56 PM71 °FBroken clouds.16 mph55%29.76 "Hg10 mi
1:56 PM69 °FPartly sunny.14 mph59%29.77 "Hg10 mi
12:56 PM69 °FBroken clouds.15 mph59%29.77 "Hg10 mi
11:56 AM66 °FScattered clouds.16 mph65%29.77 "Hg10 mi
10:56 AM64 °FScattered clouds.16 mph68%29.76 "Hg10 mi
9:56 AM59 °FBroken clouds.12 mph81%29.77 "Hg10 mi
Weather by CustomWeather, © 2015

See weather overviewHow to use our weather pages